Terminal Aerodrome Forecast
Issued by NWS Charleston, WV

Current Version | Previous Version | Text Only | Print | Product List | Glossary Off
Versions: 1 2 3 4 5 6 7 8 9 10 11 12 13 14 15 16 17 18 19 20 21

000
FTUS41 KRLX 181100
TAFCRW
TAF
KCRW 181135Z 1812/1912 VRB03KT 6SM BR FEW001
     FM181300 VRB03KT P6SM SCT250
     FM182000 03006KT P6SM SCT250
     FM190200 VRB03KT P6SM FEW050
     FM190800 12006KT P6SM BKN050=

USA.gov is the U.S. government's official web portal to all federal, state and local government web resources and services.